Location: Raleigh
(35.7720°N, 78.6390°W)
Time: 14:01:24
(UTC-04:00)

JAS-2 - Visible Passes

Search period start: 21 August 2014 00:00
Search period end: 31 August 2014 00:00
Orbit: 799 x 1322 km, 98.5° (Epoch: 20 August)

Date Brightness Start Highest point End Pass type
(mag) Time Alt. Az. Time Alt. Az. Time Alt. Az.
22 Aug 12.2 06:06:41 10° ENE 06:09:12 13° E 06:11:44 10° ESE visible
24 Aug 12.3 06:02:07 10° ENE 06:04:13 12° E 06:06:22 10° ESE visible
26 Aug 12.4 05:57:39 10° ENE 05:59:15 11° E 06:00:52 10° ESE visible
28 Aug 12.7 05:53:31 10° E 05:54:17 10° E 05:55:04 10° E visible
29 Aug 13.0 20:24:33 10° W 20:24:59 10° W 20:25:26 10° W visible
